Radioactive Concentration measured by Seawater Radiation Monitor near Fukushima Daiichi Nuclear Power Station
Date,Time,Cs137(Bq/L),Cs134(Bq/L),Total β(Bq/L)
2021/02/17,00:00,-,-,18
2021/02/17,00:10,-,-,21
2021/02/17,00:20,-,-,19
2021/02/17,00:30,-,-,20
2021/02/17,00:40,-,-,20
2021/02/17,00:50,-,-,19
2021/02/17,01:00,-,-,18
2021/02/17,01:10,-,-,18
2021/02/17,01:20,-,-,16
2021/02/17,01:30,-,-,16
2021/02/17,01:40,-,-,17
2021/02/17,01:50,-,-,19
2021/02/17,02:00,-,-,19
2021/02/17,02:10,-,-,21
2021/02/17,02:20,-,-,21
2021/02/17,02:30,-,-,21
2021/02/17,02:40,-,-,21
2021/02/17,02:50,-,-,21
2021/02/17,03:00,-,-,21
2021/02/17,03:10,-,-,22
2021/02/17,03:20,-,-,22
2021/02/17,03:30,-,-,17
2021/02/17,03:40,-,-,17
2021/02/17,03:50,-,-,18
2021/02/17,04:00,-,-,16
2021/02/17,04:10,-,-,13
2021/02/17,04:20,-,-,14
2021/02/17,04:30,-,-,19
2021/02/17,04:40,-,-,18
2021/02/17,04:50,-,-,18
2021/02/17,05:00,-,-,19
2021/02/17,05:10,-,-,19
2021/02/17,05:20,-,-,19
2021/02/17,05:30,-,-,18
2021/02/17,05:40,-,-,18
2021/02/17,05:50,-,-,17
2021/02/17,06:00,-,-,18
2021/02/17,06:10,-,-,17
2021/02/17,06:20,-,-,18
2021/02/17,06:30,-,-,19
2021/02/17,06:40,-,-,22
2021/02/17,06:50,-,-,22
2021/02/17,07:00,-,-,22
2021/02/17,07:10,-,-,21
2021/02/17,07:20,-,-,20
2021/02/17,07:30,-,-,19
2021/02/17,07:40,-,-,16
2021/02/17,07:50,-,-,17
2021/02/17,08:00,-,-,17
2021/02/17,08:10,-,-,19
2021/02/17,08:20,-,-,18
2021/02/17,08:30,-,-,21
2021/02/17,08:40,-,-,20
2021/02/17,08:50,-,-,20
2021/02/17,09:00,-,-,18
2021/02/17,09:10,-,-,19
2021/02/17,09:20,-,-,18
2021/02/17,09:30,-,-,18
2021/02/17,09:40,-,-,20
2021/02/17,09:50,-,-,15
2021/02/17,10:00,-,-,15
2021/02/17,10:10,-,-,16
2021/02/17,10:20,-,-,18
2021/02/17,10:30,-,-,17
2021/02/17,10:40,-,-,17
2021/02/17,10:50,-,-,22
2021/02/17,11:00,-,-,20
2021/02/17,11:10,-,-,20
2021/02/17,11:20,-,-,19
2021/02/17,11:30,-,-,19
2021/02/17,11:40,-,-,20
2021/02/17,11:50,-,-,18
2021/02/17,12:00,-,-,17
2021/02/17,12:10,-,-,17
2021/02/17,12:20,-,-,18
2021/02/17,12:30,-,-,18
2021/02/17,12:40,-,-,15
2021/02/17,12:50,-,-,14
2021/02/17,13:00,-,-,16
2021/02/17,13:10,-,-,15
2021/02/17,13:20,-,-,14
2021/02/17,13:30,-,-,14
2021/02/17,13:40,-,-,14
2021/02/17,13:50,-,-,17
2021/02/17,14:00,-,-,16
2021/02/17,14:10,-,-,16
2021/02/17,14:20,-,-,16
2021/02/17,14:30,-,-,16
2021/02/17,14:40,-,-,18
2021/02/17,14:50,-,-,16
2021/02/17,15:00,-,-,16
2021/02/17,15:10,-,-,13
2021/02/17,15:20,-,-,14
2021/02/17,15:30,-,-,12
2021/02/17,15:40,-,-,11
2021/02/17,15:50,-,-,14
2021/02/17,16:00,-,-,14
2021/02/17,16:10,-,-,14
2021/02/17,16:20,-,-,14
2021/02/17,16:30,-,-,16
2021/02/17,16:40,-,-,19
2021/02/17,16:50,-,-,18
2021/02/17,17:00,-,-,18
2021/02/17,17:10,-,-,18
2021/02/17,17:20,-,-,18
2021/02/17,17:30,-,-,17
2021/02/17,17:40,-,-,15
2021/02/17,17:50,-,-,15
2021/02/17,18:00,-,-,15
2021/02/17,18:10,-,-,17
2021/02/17,18:20,-,-,19
2021/02/17,18:30,-,-,18
2021/02/17,18:40,-,-,19
2021/02/17,18:50,-,-,19
2021/02/17,19:00,-,-,21
2021/02/17,19:10,-,-,21
2021/02/17,19:20,-,-,20
2021/02/17,19:30,-,-,22
2021/02/17,19:40,-,-,18
2021/02/17,19:50,-,-,18
2021/02/17,20:00,-,-,19
2021/02/17,20:10,-,-,16
2021/02/17,20:20,-,-,17
2021/02/17,20:30,-,-,15
2021/02/17,20:40,-,-,16
2021/02/17,20:50,-,-,17
2021/02/17,21:00,-,-,16
2021/02/17,21:10,-,-,16
2021/02/17,21:20,-,-,16
2021/02/17,21:30,-,-,16
2021/02/17,21:40,-,-,18
2021/02/17,21:50,-,-,19
2021/02/17,22:00,-,-,21
2021/02/17,22:10,-,-,22
2021/02/17,22:20,-,-,23
2021/02/17,22:30,-,-,23
2021/02/17,22:40,-,-,21
2021/02/17,22:50,-,-,19
2021/02/17,23:00,-,-,18
2021/02/17,23:10,-,-,18
2021/02/17,23:20,-,-,19
2021/02/17,23:30,-,-,22
2021/02/17,23:40,-,-,24
2021/02/17,23:50,-,-,24
